Regional Weather Roundup
Issued by NWS Charleston, WV

Home | Current Version | Previous Version | Graphics & Text | Print | Product List | Glossary On
Versions: 1 2 3 4 5 6 7 8 9 10 11 12 13 14 15 16 17 18 19 20 21 22 23 24 25 26 27
000
ASUS41 KRLX 240910
RWRRLX
West Virginia Regional Weather Roundup
National Weather Service Charleston WV
500 AM EDT TUE MAY 24 2016

Note: "fair" indicates few or no clouds below 12,000 feet with no
significant weather and/or obstructions to visibility.

WVZ003-241000-
Northern Panhandle of West Virginia

CITY           SKY/WX    TMP DP  RH WIND       PRES   REMARKS
WHEELING         N/A     52  50  93 CALM      30.04S FOG
$$

WVZ009-241000-
Northwest West Virginia

CITY           SKY/WX    TMP DP  RH WIND       PRES   REMARKS
PARKERSBURG      N/A     51  50  96 CALM      30.07R
$$

WVZ006-241000-
Western West Virginia

CITY           SKY/WX    TMP DP  RH WIND       PRES   REMARKS
HUNTINGTON       N/A     52  49  89 CALM      30.05R
$$

WVZ015-241000-
West Central West Virginia

CITY           SKY/WX    TMP DP  RH WIND       PRES   REMARKS
CHARLESTON       N/A     51  50  96 CALM      30.06R FOG
$$

WVZ022-031-241000-
North Central West Virginia

CITY           SKY/WX    TMP DP  RH WIND       PRES   REMARKS
CLARKSBURG       N/A     49  48  97 CALM      30.06R FOG
MORGANTOWN       N/A     52  47  83 CALM      30.06R
$$

WVZ025-035-042-045-241000-
Southern West Virginia

CITY           SKY/WX    TMP DP  RH WIND       PRES   REMARKS
BECKLEY          N/A     47  46  97 SE3       30.10R
LOGAN            N/A     54  52  94 CALM      30.07R
BLUEFIELD        N/A     50  46  86 CALM      30.11R
LEWISBURG      FOG       44  44  99 N3        30.10R VSB 1/4
$$

WVZ047-241000-
Northern Mountains of West Virginia

CITY           SKY/WX    TMP DP  RH WIND       PRES   REMARKS
ELKINS         FOG       46  44  93 CALM      30.09S VSB 3/4
$$

WVZ052-241000-
Eastern Panhandle of West Virginia

CITY           SKY/WX    TMP DP  RH WIND       PRES   REMARKS
MARTINSBURG    FOG       50  49  96 CALM      29.97S VSB 1/2
PETERSBURG       N/A     55  53  95 E5        30.04R
$$




USA.gov is the U.S. government's official web portal to all federal, state and local government web resources and services.